Regional Weather Roundup
Issued by NWS Midland/Odessa, TX

Skip options and go directly to product.
Home | Oldest Version | Next Version | Current Version | All | Text Only | Save Text | Print | Product List | Glossary On

Skip product version selection by date and time.   
093
ASUS44 KMAF 040001
RWRMAF
MIDLAND AREA WEATHER ROUNDUP
NATIONAL WEATHER SERVICE MIDLAND TX
600 PM CST SAT DEC 03 2016

...IN SOUTHWEST TEXAS AND SOUTHEAST NEW MEXICO...

CITY           SKY/WX    TMP DP  RH WIND       PRES   REMARKS
ALPINE         CLOUDY    37  37  98 NE9       30.02S WCI  31
ANDREWS        LGT RAIN  40  40 100 CALM      29.99F
ARTESIA        CLOUDY    39  39 100 CALM      30.01R
BIG SPRING     CLOUDY    42  41  97 N10       29.99S WCI  36
CARLSBAD       CLOUDY    38  37  97 NW7       29.99S WCI  33
DRYDEN           N/A     49  46  90 N13       29.89R
FORT STOCKTON  CLOUDY    43  43 100 N9        29.99S FOG     WCI  38
GUAD PASS      LGT RAIN  33  33 100 E31       29.93S VSB<1/4 WCI  19
HOBBS          CLOUDY    39  39 100 NE6       29.98F WCI  35
MARFA          CLOUDY    38  35  89 N17       29.93F WCI  28
MIDLAND AIRPK  RAIN      43  43 100 N6        30.00R WCI  40
MIDLAND INTL   LGT RAIN  43  40  89 N9        29.98R FOG     WCI  38
ODESSA         CLOUDY    42  39  89 NE8       29.98F WCI  37
PECOS          DRIZZLE   41  40  96 NW9       30.00R WCI  35
PRESIDIO       CLOUDY    50  42  75 N8        29.88S
SEMINOLE       RAIN      40  39  98 NE3       30.00F
SNYDER         CLOUDY    41  41  99 NE7       29.98S WCI  37
WINK           LGT RAIN  43  42  97 N8        29.97F WCI  38
$$
...OTHER STATIONS IN TEXAS...

CITY           SKY/WX    TMP DP  RH WIND       PRES   REMARKS
ABILENE        CLOUDY    45  45 100 N7        29.97S FOG
AMARILLO       CLOUDY    39  38  96 CALM      29.99S
AUSTIN         LGT RAIN  52  51  97 NE7       29.92R
BROWNSVILLE    CLOUDY    79  73  82 S9        29.75R HAZE
CORPUS CHRISTI LGT RAIN  58  55  90 N17       29.85S
DALLAS FTW     DRIZZLE   49  46  90 NE12      29.99R FOG
DEL RIO        LGT RAIN  53  53 100 NW5       29.87S FOG
EL PASO        MOCLDY    47  38  71 N6        29.95R
HOUSTON INT    HVY RAIN  53  51  93 N10       29.90R FOG
LUBBOCK        DRIZZLE   41  39  93 N7        29.97S FOG     WCI  36
SAN ANGELO     CLOUDY    47  46  97 N8        29.95S FOG
SAN ANTONIO    LGT RAIN  51  50  96 NE10G24   29.82F
WACO           CLOUDY    50  49  96 NE9       29.95F FOG
WICHITA FALLS  NOT AVBL
$$
...OTHER LOCATIONS IN NEW MEXICO...

CITY           SKY/WX    TMP DP  RH WIND       PRES   REMARKS
ALAMAGORDO     NOT AVBL
ALBUQUERQUE    PTCLDY    44  23  43 N16G25    30.00R WCI  37
CANNON AFB     CLOUDY    38  38 100 S3        29.97S
CLOVIS         CLOUDY    37  34  87 CALM      29.97F
HOLLOMAN AFB   CLOUDY    46  38  76 S6        29.98F
ROSWELL        CLOUDY    40  35  83 E3        29.99R
RUIDOSO          N/A     32  32 100 S7        29.99R WCI  26
SANTA FE       CLEAR     39  22  50 NW7       29.97R WCI  34
TRUTH OR CONSE PTCLDY    48  30  49 NE10      29.96R
TUCUMCARI      PTCLDY    38  34  85 SE6       29.95S WCI  33
$$

  • National Weather Service
  • Southern Region Headquarters
  • 819 Taylor Street, Room 10A06
  • Fort Worth, TX 76102
  • Page Author: NWS Fort Worth
  • Web Master: SR-SRH.Webmaster@noaa.gov
  •  
  • Page last modified: 30-Sep-2016 6:36 PM UTC
USA.gov is the U.S. government's official web portal to all federal, state and local government web resources and services.